Flag for U.S.A. Weather past 2 weeks in Des Moines, Iowa, U.S.A.

59 °F

Passing clouds.

Feels Like: 59 °F
Forecast: 56 / 76 °F
Wind: No wind

Location: Des Moines International Airport

Current Time: Oct 7, 2015 at 8:02:18 AM

Latest Report: Oct 7, 2015 at 6:54 AM

Visibility: 10 mi

Pressure: 30.14 "Hg

Humidity: 87%

Dew point: 55 °F

Location of Des MoinesLocation

Historic Weather in Des Moines — Graph


Des Moines temperature yesterday

Maximum temperature yesterday: 71 °F (at 12:54 PM)
Minimum temperature yesterday: 56 °F (at 5:54 AM)
Average temperature yesterday: 63 °F

Past Weeks' High & Low Weather Summary

High84 °F (Sep 28, 2:54 PM)90% (Sep 22, 10:54 PM)30.39 "Hg (Sep 22, 10:54 PM)
Low44 °F (Oct 2, 6:54 AM)27% (Sep 30, 4:54 PM)29.85 "Hg (Sep 28, 3:54 PM)
Average64 °F65%30.15 "Hg
* Reported Sep 22 6:54 AM — Oct 7 6:54 AM, Des Moines, Weather by CustomWeather, © 2015

Note: Actual official high and low records may vary slightly from our data, if they occured in-between our weather recording intervals... More about our weather records


Des Moines weather history for previous 24 hours

Time TempWeatherWind HumidityBarometerVisibility
6:54 AM
Wed, Oct 7
59 °FPassing clouds.No wind87%30.14 "Hg10 mi
5:54 AM59 °FPassing clouds.3 mph87%30.14 "Hg10 mi
4:54 AM59 °FPassing clouds.5 mph87%30.12 "Hg10 mi
3:54 AM60 °FPassing clouds.5 mph83%30.12 "Hg10 mi
2:54 AM59 °FPassing clouds.5 mph84%30.12 "Hg10 mi
1:54 AM59 °FPassing clouds.5 mph84%30.11 "Hg10 mi
12:54 AM61 °FPassing clouds.5 mph83%30.12 "Hg10 mi
11:54 PM
Tue, Oct 6
62 °FPassing clouds.No wind80%30.11 "Hg10 mi
10:54 PM61 °FPassing clouds.3 mph81%30.12 "Hg10 mi
9:54 PM64 °FPassing clouds.3 mph75%30.11 "Hg10 mi
8:54 PM66 °FPassing clouds.3 mph70%30.11 "Hg9 mi
7:54 PM66 °FPassing clouds.3 mph70%30.11 "Hg10 mi
6:54 PM68 °FPartly sunny.3 mph65%30.11 "Hg10 mi
5:54 PM71 °FScattered clouds.5 mph57%30.11 "Hg10 mi
4:54 PM71 °FPartly sunny.6 mph57%30.12 "Hg10 mi
3:54 PM71 °FPartly sunny.8 mph59%30.12 "Hg10 mi
2:54 PM70 °FMostly cloudy.7 mph59%30.13 "Hg10 mi
1:54 PM70 °FCloudy.7 mph59%30.16 "Hg10 mi
12:54 PM71 °FBroken clouds.No wind59%30.18 "Hg10 mi
11:54 AM67 °FPartly sunny.No wind66%30.19 "Hg10 mi
10:54 AM65 °FMostly cloudy.No wind73%30.19 "Hg10 mi
9:54 AM62 °FCloudy.No wind78%30.20 "Hg10 mi
8:54 AM60 °FMore clouds than sun.No wind80%30.19 "Hg10 mi
Weather by CustomWeather, © 2015

See weather overviewHow to use our weather pages